Regional Weather Roundup
Issued by NWS Cleveland, OH

Home | Current Version | Previous Version | Graphics & Text | Print | Product List | Glossary On
Versions: 1 2 3 4 5 6 7 8 9 10 11 12 13 14 15 16 17 18 19 20 21 22 23 24 25 26 27 28 29 30 31 32 33 34 35 36 37 38 39 40 41 42 43 44 45 46 47 48 49 50
823
ASUS41 KCLE 260312
RWRCLE
OHIO REGIONAL WEATHER ROUNDUP
NATIONAL WEATHER SERVICE WILMINGTON, OH
1100 PM EDT TUE JUL 25 2017

NOTE: "FAIR" INDICATES FEW OR NO CLOUDS BELOW 12,000 FEET WITH NO
SIGNIFICANT WEATHER AND/OR OBSTRUCTIONS TO VISIBILITY.

OHZ001>008-015>018-024>027-034-035-043-044-260400-
   NORTHWEST OHIO

CITY           SKY/WX    TMP DP  RH WIND       PRES   REMARKS
DEFIANCE       FAIR     N/A N/A N/A E6        30.20S
FINDLAY        FAIR      67  58  72 E7        30.20R
TOLEDO EXPRESS FAIR      64  61  90 CALM      30.20S
TOLEDO EXEC    FAIR      65  61  87 SE5       30.21S
LIMA           FAIR      63  61  93 E5        30.20S
$$

OHZ009>014-019>023-028>033-038-089-260400-
   NORTHEAST OHIO

CITY           SKY/WX    TMP DP  RH WIND       PRES   REMARKS
CLE-HOPKINS    FAIR      69  56  62 E6        30.23S
CLE-LAKEFRONT  FAIR      68  57  68 E6        30.20F
CUY CO. ARPT   PTCLDY    64  57  77 E6        30.23F
LORAIN-ELYRIA  FAIR      59  53  80 CALM      30.22S
ASHTABULA      FAIR      58  57  97 E5        30.24F
AKRON-CANTON   FAIR      65  55  70 NE9       30.23S
WOOSTER        FAIR      64  59  83 NE3       30.23S
MANSFIELD      FAIR      64  61  90 NE6       30.23R
YOUNGSTOWN     FAIR      60  55  83 CALM      30.24R
$$

OHZ042-051>053-060>062-070>072-077>081-260400-
  SOUTHWEST OHIO

CITY           SKY/WX    TMP DP  RH WIND       PRES   REMARKS
CINC-COVINGTON FAIR      70  63  78 E8        30.17R
CINC-LUNKEN    FAIR      67  64  90 N3        30.18R
HAMILTON       FAIR      67  62  84 E5        30.19R
DAYTON         FAIR      66  59  78 E7        30.20S
WRIGHT-PAT AFB FAIR      67  61  81 CALM      30.19R
DAYTON GENERAL FAIR      67  60  78 E6        30.19R
WILMINGTON     FAIR      63  61  93 E5        30.20R
$$

OHZ036-037-039>041-045>050-054>059-063>069-073>076-082>088-260400-
  CENTRAL AND SOUTHEAST OHIO

CITY           SKY/WX    TMP DP  RH WIND       PRES   REMARKS
COLUMBUS       FAIR      68  62  81 SE7       30.20S
OSU AIRPORT    FAIR      66  61  84 E5        30.21R
BOLTON FIELD   FAIR      63  60  92 CALM      30.21S
RICKENBACK AFB FAIR      64  61  91 SE5       30.20F
NEWARK         FAIR      62  60  93 CALM      30.21S
MARION         FAIR      63  59  87 CALM      30.21S
LANCASTER      FAIR      61  60  97 CALM      30.22S
ZANESVILLE     FAIR      63  60  90 CALM      30.22R
NEW PHILLY     FAIR      62  61  96 SE3       30.23R
$$




USA.gov is the U.S. government's official web portal to all federal, state and local government web resources and services.